TimeCDT,TemperatureF,Dew PointF,Humidity,Sea Level PressureIn,VisibilityMPH,Wind Direction,Wind SpeedMPH,Gust SpeedMPH,PrecipitationIn,Events,Conditions,WindDirDegrees,DateUTC
12:15 AM,68.0,66.2,94,30.04,7.0,SSE,5.8,-,N/A,,Scattered Clouds,150,2013-10-04 05:15:00
12:35 AM,68.0,66.2,94,30.04,7.0,SSE,3.5,-,N/A,,Scattered Clouds,150,2013-10-04 05:35:00
12:55 AM,68.0,66.2,94,30.04,7.0,SSE,4.6,-,N/A,,Scattered Clouds,160,2013-10-04 05:55:00
1:15 AM,68.0,66.2,94,30.04,7.0,SE,4.6,-,N/A,,Clear,140,2013-10-04 06:15:00
1:35 AM,68.0,66.2,94,30.04,7.0,SE,3.5,-,N/A,,Scattered Clouds,140,2013-10-04 06:35:00
1:55 AM,68.0,64.4,88,30.04,7.0,SSE,3.5,-,N/A,,Clear,150,2013-10-04 06:55:00
2:15 AM,66.2,64.4,94,30.04,7.0,Calm,Calm,-,N/A,,Clear,0,2013-10-04 07:15:00
2:35 AM,66.2,64.4,94,30.04,7.0,Calm,Calm,-,N/A,,Clear,0,2013-10-04 07:35:00
2:55 AM,66.2,64.4,94,30.03,5.0,Calm,Calm,-,N/A,,Clear,0,2013-10-04 07:55:00
3:15 AM,66.2,64.4,94,30.03,5.0,Calm,Calm,-,N/A,,Clear,0,2013-10-04 08:15:00
3:35 AM,64.4,64.4,100,30.03,5.0,Calm,Calm,-,N/A,,Clear,0,2013-10-04 08:35:00
3:55 AM,66.2,64.4,94,30.02,5.0,Calm,Calm,-,N/A,,Clear,0,2013-10-04 08:55:00
4:15 AM,64.4,64.4,100,30.02,5.0,Calm,Calm,-,N/A,,Clear,0,2013-10-04 09:15:00
4:35 AM,66.2,64.4,94,30.02,5.0,Calm,Calm,-,N/A,,Clear,0,2013-10-04 09:35:00
4:55 AM,66.2,64.4,94,30.03,5.0,Calm,Calm,-,N/A,,Clear,0,2013-10-04 09:55:00
5:15 AM,64.4,64.4,100,30.03,4.0,Calm,Calm,-,N/A,,Clear,0,2013-10-04 10:15:00
5:35 AM,64.4,64.4,100,30.04,4.0,Calm,Calm,-,N/A,,Scattered Clouds,0,2013-10-04 10:35:00
5:55 AM,64.4,64.4,100,30.04,4.0,Calm,Calm,-,N/A,,Scattered Clouds,0,2013-10-04 10:55:00
6:15 AM,64.4,64.4,100,30.04,4.0,Calm,Calm,-,N/A,,Mostly Cloudy,0,2013-10-04 11:15:00
6:35 AM,66.2,64.4,94,30.05,5.0,Calm,Calm,-,N/A,,Overcast,0,2013-10-04 11:35:00
6:55 AM,66.2,64.4,94,30.06,5.0,SE,3.5,-,N/A,,Overcast,140,2013-10-04 11:55:00
7:35 AM,66.2,64.4,94,30.07,4.0,SSE,3.5,-,N/A,,Overcast,150,2013-10-04 12:35:00
7:55 AM,68.0,66.2,94,30.07,4.0,SSE,4.6,-,N/A,,Overcast,150,2013-10-04 12:55:00
8:15 AM,68.0,66.2,94,30.08,5.0,SSE,5.8,-,N/A,,Overcast,150,2013-10-04 13:15:00
8:35 AM,68.0,68.0,100,30.09,5.0,SSE,5.8,-,N/A,,Overcast,150,2013-10-04 13:35:00
8:55 AM,69.8,68.0,94,30.09,4.0,SSE,6.9,-,N/A,,Overcast,150,2013-10-04 13:55:00
9:15 AM,69.8,68.0,94,30.09,4.0,SSE,6.9,-,N/A,,Overcast,150,2013-10-04 14:15:00
9:35 AM,71.6,68.0,88,30.10,5.0,SSE,10.4,-,N/A,,Overcast,160,2013-10-04 14:35:00
9:55 AM,71.6,69.8,94,30.09,5.0,SSE,6.9,-,N/A,,Overcast,150,2013-10-04 14:55:00
10:15 AM,71.6,69.8,94,30.10,7.0,South,6.9,-,N/A,,Overcast,170,2013-10-04 15:15:00
10:35 AM,71.6,69.8,94,30.10,7.0,South,4.6,-,N/A,,Overcast,180,2013-10-04 15:35:00
10:55 AM,73.4,69.8,88,30.09,7.0,SE,5.8,-,N/A,,Overcast,130,2013-10-04 15:55:00
11:15 AM,77.0,71.6,83,30.09,10.0,South,3.5,-,N/A,,Mostly Cloudy,170,2013-10-04 16:15:00
11:35 AM,78.8,69.8,74,30.09,10.0,SSE,8.1,-,N/A,,Mostly Cloudy,160,2013-10-04 16:35:00
11:55 AM,80.6,71.6,74,30.08,10.0,SE,5.8,-,N/A,,Overcast,140,2013-10-04 16:55:00
12:15 PM,80.6,71.6,74,30.08,10.0,SSE,5.8,-,N/A,,Mostly Cloudy,150,2013-10-04 17:15:00
12:35 PM,80.6,71.6,74,30.07,10.0,SSE,6.9,-,N/A,,Overcast,160,2013-10-04 17:35:00
12:55 PM,80.6,71.6,74,30.07,10.0,SE,5.8,-,N/A,,Overcast,140,2013-10-04 17:55:00
1:15 PM,80.6,71.6,74,30.07,10.0,SSE,5.8,-,N/A,,Overcast,160,2013-10-04 18:15:00
1:35 PM,80.6,71.6,74,30.05,10.0,SE,3.5,-,N/A,,Overcast,140,2013-10-04 18:35:00
1:55 PM,84.2,71.6,66,30.04,10.0,SSE,6.9,-,N/A,,Overcast,150,2013-10-04 18:55:00
2:15 PM,82.4,71.6,70,30.04,10.0,SE,8.1,-,N/A,,Overcast,140,2013-10-04 19:15:00
2:35 PM,82.4,71.6,70,30.04,10.0,Calm,Calm,-,N/A,,Overcast,0,2013-10-04 19:35:00
2:55 PM,82.4,71.6,70,30.03,10.0,Calm,Calm,-,N/A,,Overcast,0,2013-10-04 19:55:00
3:15 PM,82.4,71.6,70,30.03,10.0,South,4.6,-,N/A,,Mostly Cloudy,190,2013-10-04 20:15:00
3:35 PM,82.4,71.6,70,30.03,10.0,SE,3.5,-,N/A,,Overcast,140,2013-10-04 20:35:00
3:55 PM,82.4,71.6,70,30.02,10.0,Calm,Calm,-,N/A,,Overcast,0,2013-10-04 20:55:00
4:15 PM,82.4,71.6,70,30.02,10.0,Calm,Calm,-,N/A,,Overcast,0,2013-10-04 21:15:00
4:35 PM,82.4,71.6,70,30.02,10.0,Calm,Calm,-,N/A,,Overcast,0,2013-10-04 21:35:00
4:55 PM,82.4,71.6,70,30.01,10.0,Calm,Calm,-,N/A,,Overcast,0,2013-10-04 21:55:00
5:15 PM,82.4,71.6,70,30.01,10.0,SE,3.5,-,N/A,,Overcast,140,2013-10-04 22:15:00
5:35 PM,82.4,71.6,70,30.01,10.0,Calm,Calm,-,N/A,,Overcast,0,2013-10-04 22:35:00
5:55 PM,82.4,71.6,70,30.02,10.0,Calm,Calm,-,N/A,,Scattered Clouds,0,2013-10-04 22:55:00
6:15 PM,80.6,71.6,74,30.02,10.0,Calm,Calm,-,N/A,,Clear,0,2013-10-04 23:15:00
6:35 PM,77.0,71.6,83,30.02,10.0,Calm,Calm,-,N/A,,Clear,0,2013-10-04 23:35:00
6:55 PM,73.4,71.6,94,30.03,10.0,Calm,Calm,-,N/A,,Clear,0,2013-10-04 23:55:00
7:15 PM,73.4,71.6,94,30.03,10.0,Calm,Calm,-,N/A,,Clear,0,2013-10-05 00:15:00
7:35 PM,71.6,71.6,100,30.03,7.0,Calm,Calm,-,N/A,,Clear,0,2013-10-05 00:35:00
7:55 PM,71.6,69.8,94,30.03,10.0,Calm,Calm,-,N/A,,Clear,0,2013-10-05 00:55:00
8:15 PM,71.6,69.8,94,30.04,10.0,East,3.5,-,N/A,,Clear,100,2013-10-05 01:15:00
8:35 PM,73.4,69.8,88,30.04,10.0,Calm,Calm,-,N/A,,Clear,0,2013-10-05 01:35:00
8:55 PM,71.6,69.8,94,30.04,10.0,Calm,Calm,-,N/A,,Clear,0,2013-10-05 01:55:00
9:15 PM,73.4,69.8,88,30.04,10.0,ESE,3.5,-,N/A,,Clear,110,2013-10-05 02:15:00
9:35 PM,73.4,69.8,88,30.05,10.0,Calm,Calm,-,N/A,,Clear,0,2013-10-05 02:35:00
9:55 PM,71.6,69.8,94,30.05,10.0,Calm,Calm,-,N/A,,Clear,0,2013-10-05 02:55:00
10:15 PM,69.8,68.0,94,30.05,7.0,Calm,Calm,-,N/A,,Clear,0,2013-10-05 03:15:00
10:35 PM,69.8,68.0,94,30.05,10.0,Calm,Calm,-,N/A,,Clear,0,2013-10-05 03:35:00
10:55 PM,69.8,68.0,94,30.05,10.0,Calm,Calm,-,N/A,,Clear,0,2013-10-05 03:55:00
11:15 PM,71.6,68.0,88,30.05,10.0,Calm,Calm,-,N/A,,Clear,0,2013-10-05 04:15:00
11:35 PM,71.6,68.0,88,30.04,10.0,Calm,Calm,-,N/A,,Clear,0,2013-10-05 04:35:00
11:55 PM,69.8,68.0,94,30.04,10.0,SSE,3.5,-,N/A,,Clear,150,2013-10-05 04:55:00